GBOZI EGHF-EGHH

Flight info

Callsign GBOZI
Flight time 0h 16m
Altitude 2000
Route HURST CASTLE VRP DCT
Aircraft P28A/L-SFG/C

Departure

Time 2026-05-08 13:36
Airport Solent Airport (EGHF)

Arrival

Time 2026-05-08 13:52
Airport Bournemouth Airport (EGHH)
Time Latitude Longitude Altitude Speed Heading
2026-05-08 13:31 50.81170 -1.20768 32 ft 0 kts 184°
2026-05-08 13:32 50.81169 -1.20751 32 ft 4 kts 38°
2026-05-08 13:32 50.81198 -1.20765 32 ft 7 kts 291°
2026-05-08 13:33 50.81208 -1.20869 32 ft 13 kts 272°
2026-05-08 13:33 50.81208 -1.20958 32 ft 1 kts 271°
2026-05-08 13:33 50.81210 -1.20993 32 ft 6 kts 277°
2026-05-08 13:33 50.81216 -1.21085 30 ft 10 kts 279°
2026-05-08 13:34 50.81247 -1.21165 29 ft 9 kts 13°
2026-05-08 13:34 50.81258 -1.21157 29 ft 0 kts 45°
2026-05-08 13:35 50.81320 -1.21062 29 ft 34 kts 48°
2026-05-08 13:35 50.81587 -1.20639 61 ft 67 kts 51°
2026-05-08 13:35 50.81948 -1.20121 215 ft 74 kts 52°
2026-05-08 13:35 50.82300 -1.19540 399 ft 73 kts 50°
2026-05-08 13:36 50.82672 -1.18965 596 ft 74 kts 39°
2026-05-08 13:36 50.83189 -1.18832 785 ft 79 kts 351°
2026-05-08 13:36 50.83680 -1.19371 957 ft 91 kts 318°
2026-05-08 13:36 50.84044 -1.20173 1164 ft 91 kts 295°
2026-05-08 13:37 50.84323 -1.21076 1416 ft 91 kts 290°
2026-05-08 13:37 50.84466 -1.22063 1640 ft 94 kts 262°
2026-05-08 13:37 50.84285 -1.22997 1840 ft 100 kts 235°
2026-05-08 13:37 50.83934 -1.24040 1901 ft 109 kts 232°
2026-05-08 13:38 50.83571 -1.25064 1827 ft 109 kts 232°
2026-05-08 13:38 50.83179 -1.26118 1846 ft 115 kts 232°
2026-05-08 13:38 50.82736 -1.27216 1865 ft 120 kts 231°
2026-05-08 13:38 50.82261 -1.28306 1824 ft 120 kts 226°
2026-05-08 13:39 50.81781 -1.29363 1818 ft 115 kts 226°
2026-05-08 13:39 50.81293 -1.30333 1804 ft 111 kts 220°
2026-05-08 13:39 50.80967 -1.30947 1812 ft 109 kts 222°
2026-05-08 13:39 50.80504 -1.31924 1809 ft 112 kts 227°
2026-05-08 13:40 50.80019 -1.32881 1809 ft 111 kts 220°
2026-05-08 13:40 50.79552 -1.33863 1811 ft 112 kts 227°
2026-05-08 13:40 50.79128 -1.34876 1810 ft 109 kts 228°
2026-05-08 13:40 50.78688 -1.35834 1819 ft 107 kts 226°
2026-05-08 13:41 50.78247 -1.36797 1816 ft 110 kts 227°
2026-05-08 13:41 50.77795 -1.37784 1805 ft 109 kts 227°
2026-05-08 13:41 50.77363 -1.38759 1809 ft 107 kts 228°
2026-05-08 13:41 50.76945 -1.39719 1817 ft 106 kts 229°
2026-05-08 13:42 50.76523 -1.40663 1847 ft 104 kts 226°
2026-05-08 13:42 50.76114 -1.41590 1864 ft 103 kts 226°
2026-05-08 13:42 50.75684 -1.42532 1858 ft 106 kts 226°
2026-05-08 13:42 50.75246 -1.43461 1876 ft 105 kts 225°
2026-05-08 13:43 50.74822 -1.44380 1863 ft 105 kts 226°
2026-05-08 13:43 50.74378 -1.45316 1853 ft 107 kts 226°
2026-05-08 13:43 50.73923 -1.46234 1877 ft 105 kts 225°
2026-05-08 13:43 50.73481 -1.47171 1838 ft 108 kts 225°
2026-05-08 13:44 50.73020 -1.48097 1836 ft 108 kts 226°
2026-05-08 13:44 50.72635 -1.49123 1844 ft 109 kts 234°
2026-05-08 13:44 50.72269 -1.50163 1849 ft 108 kts 233°
2026-05-08 13:44 50.71870 -1.51187 1793 ft 111 kts 231°
2026-05-08 13:45 50.71450 -1.52190 1788 ft 109 kts 230°
2026-05-08 13:45 50.71247 -1.53329 1772 ft 117 kts 280°
2026-05-08 13:45 50.71554 -1.54520 1782 ft 116 kts 289°
2026-05-08 13:45 50.71863 -1.55707 1753 ft 118 kts 289°
2026-05-08 13:46 50.72167 -1.56901 1733 ft 116 kts 289°
2026-05-08 13:46 50.72485 -1.58055 1750 ft 115 kts 291°
2026-05-08 13:46 50.72797 -1.59198 1803 ft 112 kts 291°
2026-05-08 13:46 50.73095 -1.60315 1867 ft 108 kts 291°
2026-05-08 13:47 50.73385 -1.61418 1904 ft 111 kts 290°
2026-05-08 13:47 50.73677 -1.62571 1919 ft 114 kts 289°
2026-05-08 13:47 50.73970 -1.63751 1920 ft 116 kts 287°
2026-05-08 13:47 50.74251 -1.64942 1898 ft 116 kts 287°
2026-05-08 13:48 50.74522 -1.66130 1894 ft 114 kts 285°
2026-05-08 13:48 50.74761 -1.67319 1895 ft 113 kts 284°
2026-05-08 13:48 50.74997 -1.68509 1892 ft 115 kts 283°
2026-05-08 13:48 50.75234 -1.69708 1885 ft 114 kts 283°
2026-05-08 13:49 50.75420 -1.70916 1870 ft 114 kts 277°
2026-05-08 13:49 50.75683 -1.72104 1886 ft 116 kts 289°
2026-05-08 13:49 50.75974 -1.73308 1904 ft 117 kts 286°
2026-05-08 13:49 50.76232 -1.74473 1835 ft 110 kts 284°
2026-05-08 13:50 50.76450 -1.75598 1728 ft 105 kts 282°
2026-05-08 13:50 50.76648 -1.76701 1576 ft 104 kts 282°
2026-05-08 13:50 50.76839 -1.77795 1416 ft 103 kts 282°
2026-05-08 13:50 50.77130 -1.78830 1216 ft 105 kts 308°
2026-05-08 13:51 50.77739 -1.79425 1018 ft 101 kts 340°
2026-05-08 13:51 50.78323 -1.79867 879 ft 88 kts 321°
2026-05-08 13:51 50.78563 -1.80697 619 ft 84 kts 268°
2026-05-08 13:51 50.78482 -1.81571 332 ft 77 kts 248°
2026-05-08 13:52 50.78330 -1.82380 171 ft 78 kts 245°
2026-05-08 13:52 50.78191 -1.83157 44 ft 66 kts 248°
2026-05-08 13:52 50.78094 -1.83740 38 ft 34 kts 264°
2026-05-08 13:52 50.78097 -1.83910 39 ft 12 kts 331°
2026-05-08 13:53 50.78160 -1.83944 39 ft 8 kts 342°
2026-05-08 13:53 50.78214 -1.83962 39 ft 8 kts 342°
2026-05-08 13:53 50.78272 -1.83993 39 ft 10 kts 343°
2026-05-08 13:53 50.78345 -1.84018 39 ft 13 kts 347°
2026-05-08 13:54 50.78445 -1.84057 39 ft 12 kts 351°
2026-05-08 13:54 50.78462 -1.84085 39 ft 5 kts 262°
2026-05-08 13:54 50.78429 -1.84172 39 ft 13 kts 231°
2026-05-08 13:54 50.78359 -1.84308 37 ft 12 kts 243°
2026-05-08 13:55 50.78341 -1.84378 37 ft 8 kts 249°
2026-05-08 13:55 50.78380 -1.84430 37 ft 14 kts 358°
2026-05-08 13:55 50.78632 -1.84443 37 ft 21 kts 355°
2026-05-08 13:56 50.78742 -1.84464 37 ft 11 kts 350°
2026-05-08 13:56 50.78781 -1.84546 48 ft 13 kts 265°
2026-05-08 13:56 50.78774 -1.84672 37 ft 8 kts 243°
2026-05-08 13:56 50.78736 -1.84752 37 ft 10 kts 219°
2026-05-08 13:57 50.78677 -1.84820 37 ft 11 kts 211°
2026-05-08 13:57 50.78666 -1.84907 37 ft 9 kts 301°
2026-05-08 13:57 50.78656 -1.84913 37 ft 0 kts 102°